FENGYUN 1C DEB

Satellite information

Favourite Embed

Satellite Type and Status

DEBRISIN ORBIT

Key statistics

Satellite FENGYUN 1C DEB at a glance.

Uptime

9498

Days in orbit

Revolutions

≈ 14.1

Per day

Orbit

SSO

Sun Synchronous Orbit

Inclination

98.7

Latest

Satellite identification and parameters

Extended collection of information and parameters for FENGYUN 1C DEB.

Object identification

Identified? True

Debris? True

Object name: FENGYUN 1C DEB

International designator: 1999-025YX

Object number (NORAD): 30286

Object ID (CCSDS): 30286

Country: PEOPLES REPUBLIC OF CHINA (PRC)

Current information (Y/N): Y

RCS size: SMALL

Orbital parameters

Period: 101.937 minutes

Inclination: 98.6902 deg

SMA: 7228.521 km

Apoapsis: 897.077 km

Periapsis: 803.695 km

RAAN: 141.3466 deg

Eccentricy: 0.0064593

Argument of periapsis: 29.9176 deg

Mean anomaly: 91.3974 deg

Mean motion: 14.12630554 rev/day

Mean motion (dot): 0.00000182 rev/day2

B* drag term: 0.00011882 1/REarth

Two-line elements (TLE)

Creation date: May 11, 2025, 2:40 a.m.

Reference frame: TEME

Reference center: EARTH

Epoch: May 10, 2025, 2:35 p.m. UTC

TLE line 0: 0 FENGYUN 1C DEB

TLE line 1: 1 30286U 99025YX 25130.60830764 .00000182 00000-0 11882-3 0 9993

TLE line 2: 2 30286 98.6902 141.3466 0064593 29.9176 91.3974 14.12630554944079

Live tracking on map

Real-time ground track for satellite FENGYUN 1C DEB.

In-orbit conjunctions

A list of the most updated potential collisions computed for object FENGYUN 1C DEB.

Target Orbit TCA Probability of collision Miss distance Type
FENGYUN 1C DEB SSO 2024-11-09 15:58:52 0.0003640907 91.0 (m) DEBRIS
CZ-6A DEB SSO 2024-11-09 07:31:09 0.0001864539 568.0 (m) DEBRIS

Associated space launch

Chinese polar orbiting meteorological satellite

FENGYUN 1C DEB was lifted into orbit during the mission ‘Long March 4B | Feng Yun 1C’, on board a Long March 4B space rocket.

The launch took place on May 10, 1999, 1:33 a.m. from Launch Complex 7.

For more information about the launch, click the button.

Launch to space Long March 4B | Feng Yun 1C
Long March 4B | Feng Yun 1C

Agency: N/A

Status: Launch Successful

Launch date: May 10, 1999, 1:33 a.m. UTC

Rocket: Long March 4B

Launch pad: Launch Complex 7

Location: Taiyuan Satellite Launch Center, People's Republic of China

...

Latest news about this satellite

There are no fresh news available about this satellite. Check back as we update our databases every day.


Newsletter sign-up

Weekly statistics, charts and insights to help you stay on top of the space industry.